Weather past 2 weeks in Amsterdam Island, French Southern Territories

Now
57 °F

Cool.


Feels Like: 57 °F
Forecast: 56 / 63 °F
Wind: 2 mph from East

Location: Martin De Vivies Ile Amsterdam

Current Time: Apr 26, 2015 at 5:14:07 AM

Latest Report: Apr 26, 2015 at 4:00 AM


Visibility: N/A

Pressure: 29.88 "Hg

Humidity: 71%

Dew point: 47 °F

Location of Amsterdam IslandLocation

Historic Weather in Amsterdam Island — Graph

°F

Amsterdam Island temperature yesterday

Maximum temperature yesterday: 63 °F (at 1:00 AM)
Minimum temperature yesterday: 58 °F (at 7:00 PM)
Average temperature yesterday: 60 °F

Past Weeks' High & Low Weather Summary

 TemperatureHumidityPressure
High71 °F (Apr 15, 2:00 PM)96% (Apr 16, 7:00 AM)30.49 "Hg (Apr 16, 7:00 AM)
Low54 °F (Apr 13, 4:00 AM)47% (Apr 11, 11:00 AM)29.73 "Hg (Apr 15, 5:00 PM)
Average62 °F81%30.10 "Hg
* Reported Apr 11 3:00 AM — Apr 26 3:00 AM, Amsterdam Island, Weather by CustomWeather, © 2015

Note: Actual official high and low records may vary slightly from our data, if they occured in-between our weather recording intervals... More about our weather records

Advertising

Amsterdam Island weather history for previous 24 hours

 ConditionsComfort  
Time TempWeatherWind HumidityBarometerVisibility
3:00 AM
Sun, Apr 26
57 °FCool.6 mph79%29.88 "HgN/A
1:00 AM57 °FCool.8 mph87%29.89 "HgN/A
12:00 AM57 °FCool.3 mph76%29.88 "HgN/A
11:00 PM
Sat, Apr 25
58 °FCool.8 mph80%29.88 "HgN/A
10:00 PM58 °FCool.9 mph84%29.88 "HgN/A
9:00 PM58 °FCool.9 mph81%29.87 "HgN/A
8:00 PM58 °FCool.12 mph81%29.85 "HgN/A
7:00 PM58 °FCool.18 mph82%29.83 "HgN/A
6:00 PM58 °FCool.13 mph85%29.84 "HgN/A
5:00 PM58 °FCool.12 mph90%29.82 "HgN/A
4:00 PM58 °FCool.18 mph93%29.79 "HgN/A
3:00 PM61 °FCool.13 mph93%29.78 "HgN/A
2:00 PM62 °FCool.13 mph93%29.79 "HgN/A
1:00 PM62 °FCool.3 mph94%29.80 "HgN/A
12:00 PM63 °FMild.2 mph94%29.81 "HgN/A
11:00 AM63 °FMild.3 mph94%29.83 "HgN/A
10:00 AM62 °FCool.1 mph94%29.85 "HgN/A
9:00 AM62 °FCool.5 mph95%29.85 "HgN/A
8:00 AM62 °FCool.3 mph95%29.88 "HgN/A
7:00 AM60 °FCool.2 mph94%29.88 "HgN/A
6:00 AM59 °FCool.2 mph94%29.89 "HgN/A
Weather by CustomWeather, © 2015

See weather overviewHow to use our weather pages